Location: Newark
(43.6583°N, 1.6617°E)
Time: 22:37:23
(UTC+00:00)

Transit 4A - All Passes

Search period start: 25 August 2019 00:00
Search period end: 04 September 2019 00:00
Orbit: 864 x 981 km, 66.8° (Epoch: 25 August)

Date Brightness Start Highest point End Pass type
(mag) Time Alt. Az. Time Alt. Az. Time Alt. Az.
25 Aug - 01:26:47 10° NNW 01:32:40 42° NE 01:38:21 10° ESE visible
25 Aug - 03:13:22 10° NW 03:18:58 38° WSW 03:24:25 10° S visible
25 Aug - 16:34:28 10° S 16:40:26 43° ESE 16:46:25 10° NE daylight
25 Aug - 18:20:52 10° WSW 18:26:52 40° NW 18:32:52 10° NNE daylight
25 Aug - 20:12:31 10° NW 20:15:08 13° NNW 20:17:45 10° N visible
25 Aug - 23:50:43 10° N 23:54:22 16° NNE 23:57:58 10° ENE visible
26 Aug - 01:36:02 10° NNW 01:42:10 58° NE 01:48:05 10° SE visible
26 Aug - 03:23:11 10° NW 03:28:05 25° WSW 03:32:51 10° SSW visible
26 Aug - 16:43:23 10° SSW 16:49:40 62° ESE 16:55:58 10° NE daylight
26 Aug - 18:30:54 10° WSW 18:36:28 30° NW 18:42:02 10° NNE daylight
26 Aug - 20:24:18 10° NNW 20:25:08 10° NNW 20:25:57 10° NNW visible
26 Aug - 23:59:43 10° N 00:04:12 20° NE 00:08:35 10° E visible
27 Aug - 01:45:21 10° NNW 01:51:35 82° ENE 01:57:35 10° SSE visible
27 Aug - 03:33:24 10° WNW 03:37:07 17° WSW 03:40:45 10° SW visible
27 Aug - 15:10:01 10° SE 15:13:30 15° ESE 15:16:59 10° ENE daylight
27 Aug - 16:52:33 10° SSW 16:58:58 87° ESE 17:05:24 10° NNE daylight
27 Aug - 18:41:10 10° W 18:46:10 23° NW 18:51:09 10° NNE daylight
28 Aug - 00:08:48 10° NNW 00:13:56 26° NE 00:18:56 10° E visible
28 Aug - 01:54:45 10° NW 02:00:54 71° WSW 02:06:50 10° SSE visible
28 Aug - 03:45:16 10° W 03:46:03 10° W 03:46:51 10° WSW visible
28 Aug - 15:17:41 10° SSE 15:22:32 23° ESE 15:27:22 10° NE daylight
28 Aug - 17:01:58 10° SW 17:08:22 68° NW 17:14:44 10° NNE daylight
28 Aug - 18:51:41 10° WNW 18:55:57 18° NW 19:00:12 10° N daylight
28 Aug - 22:33:29 10° N 22:35:07 11° NNE 22:36:45 10° NE visible
29 Aug - 00:17:57 10° NNW 00:23:35 34° NE 00:29:02 10° ESE visible
29 Aug - 02:04:15 10° NW 02:10:08 48° WSW 02:15:49 10° S visible
29 Aug - 15:26:00 10° S 15:31:38 34° ESE 15:37:16 10° NE daylight
29 Aug - 17:11:38 10° SW 17:17:49 49° NW 17:24:00 10° NNE daylight
29 Aug - 19:02:29 10° WNW 19:05:49 14° NNW 19:09:09 10° N visible
29 Aug - 22:42:05 10° N 22:45:05 14° NNE 22:48:02 10° ENE visible
30 Aug - 00:27:09 10° NNW 00:33:08 47° NE 00:38:54 10° SE visible
30 Aug - 02:13:55 10° NW 02:19:18 33° WSW 02:24:31 10° S visible
30 Aug - 15:34:41 10° S 15:40:48 49° ESE 15:46:55 10° NE daylight
30 Aug - 17:21:31 10° WSW 17:27:22 36° NW 17:33:13 10° NNE daylight
30 Aug - 19:13:40 10° NW 19:15:46 12° NNW 19:17:52 10° N visible
30 Aug - 22:51:00 10° N 22:54:58 17° NNE 22:58:50 10° ENE visible
31 Aug - 00:36:26 10° NNW 00:42:36 66° NE 00:48:33 10° SE visible
31 Aug - 02:23:51 10° WNW 02:28:22 22° WSW 02:32:47 10° SSW visible
31 Aug - 14:02:59 10° ESE 14:04:48 11° E 14:06:37 10° E daylight
31 Aug - 15:43:42 10° SSW 15:50:03 70° ESE 15:56:25 10° NE daylight
31 Aug - 17:31:38 10° W 17:37:00 27° NW 17:42:22 10° NNE daylight
31 Aug - 23:00:02 10° NNW 23:04:45 22° NE 23:09:21 10° E visible
01 Sep - 00:45:47 10° NNW 00:51:59 88° WSW 00:57:57 10° SSE visible
01 Sep - 02:34:21 10° WNW 02:37:22 14° W 02:40:21 10° SW visible
01 Sep - 14:09:42 10° SE 14:13:47 18° ESE 14:17:51 10° ENE daylight
01 Sep - 15:52:58 10° SSW 15:59:23 84° WNW 16:05:49 10° NNE daylight
01 Sep - 17:41:59 10° W 17:46:44 21° NW 17:51:27 10° N daylight
01 Sep - 23:09:08 10° NNW 23:14:28 29° NE 23:19:37 10° ESE visible
02 Sep - 00:55:12 10° NW 01:01:16 62° WSW 01:07:07 10° SSE visible
02 Sep - 14:17:39 10° SSE 14:22:50 27° ESE 14:28:01 10° NE daylight
02 Sep - 16:02:28 10° SW 16:08:48 60° NW 16:15:07 10° NNE daylight
02 Sep - 17:52:36 10° WNW 17:56:32 17° NNW 18:00:28 10° N daylight
02 Sep - 21:33:35 10° N 21:35:45 12° NNE 21:37:54 10° NE visible
02 Sep - 23:18:19 10° NNW 23:24:05 38° NE 23:29:38 10° ESE visible
03 Sep - 01:04:46 10° NW 01:10:29 42° WSW 01:16:00 10° S visible
03 Sep - 14:26:08 10° S 14:31:58 39° ESE 14:37:49 10° NE daylight
03 Sep - 16:12:13 10° WSW 16:18:18 44° NW 16:24:22 10° NNE daylight
03 Sep - 18:03:31 10° NW 18:06:26 13° NNW 18:09:21 10° N daylight
03 Sep - 21:42:20 10° N 21:45:41 15° NNE 21:48:59 10° ENE visible
03 Sep - 23:27:32 10° NNW 23:33:36 53° NE 23:39:25 10° SE visible
